Regional Weather Roundup
Issued by NWS

Home | Current Version | Previous Version | Text Only | Print | Product List | Glossary On
Versions: 1 2 3 4 5 6 7 8 9 10 11 12 13 14 15 16 17 18 19 20 21 22 23 24 25 26 27 28 29 30 31 32 33 34 35 36 37 38 39 40 41 42 43 44 45 46 47 48 49 50
000
ASUS44 KMEG 260110
RWRTN
TENNESSEE HOURLY STATE WEATHER ROUNDUP
NATIONAL WEATHER SERVICE MEMPHIS TN
700 PM CST SUN FEB 25 2018

TNZ002-004-019-021-049-052-054-088>092-260200-
WEST TENNESSEE

CITY           SKY/WX    TMP DP  RH WIND       PRES   REMARKS
MEMPHIS INTL   CLOUDY    51  41  68 E7        30.09S
NWS MEMPHIS      N/A     50 N/A N/A MISG        N/A
JACKSON        FAIR      50  43  77 N3        30.12R
DYERSBURG      FAIR      49  41  74 E3        30.13R
SOMERVILLE     PTCLDY    50  45  81 CALM      30.10S
COVINGTON      CLEAR     48  43  81 NE5       30.11F
UNION CITY     CLEAR     46  39  76 CALM      30.13R
BOLIVAR        PTCLDY    50  43  76 CALM      30.11S
PARIS          CLEAR     46  41  81 CALM      30.12R
LEXINGTON      PTCLDY    48  41  76 CALM      30.13R
SELMER         CLOUDY    48  45  87 CALM      30.12R
SAVANNAH       CLOUDY    50  46  87 CALM      30.14R
$$

TNZ008-025-027-028-033-062-065-066-260200-
NORTH MIDDLE TENNESSEE

CITY           SKY/WX    TMP DP  RH WIND       PRES   REMARKS
NASHVILLE      CLOUDY    52  44  74 E6        30.12S
PORTLAND       CLEAR     48  43  81 CALM      30.14R
CLARKSVILLE    FAIR      48  40  73 CALM      30.14R
SMYRNA         FAIR      52  46  80 SE5       30.13F
COOKEVILLE     PTCLDY    52  48  87 SE3       30.11F
GALLATIN       PTCLDY    50  45  81 CALM      30.16R
CROSSVILLE     CLOUDY    49  46  90 CALM      30.13F
$$

TNZ061-075-076-078-094-096-097-260200-
SOUTH MIDDLE TENNESSEE

CITY           SKY/WX    TMP DP  RH WIND       PRES   REMARKS
FAYETTEVILLE   MOCLDY    54  52  94 SE8       30.11F
TULLAHOMA      CLOUDY    52  50  93 SE5       30.12R
WINCHESTER     MOCLDY    52  52 100 S6        30.13F
MCMINNVILLE    CLOUDY    52  48  87 CALM      30.11F
COLUMBIA       CLOUDY    52  52 100 CALM      30.09R
SHELBYVILLE    CLOUDY    52  48  87 CALM      30.12S
$$

TNZ017-018-042-046-047-260200-
NORTHEAST TENNESSEE

CITY           SKY/WX    TMP DP  RH WIND       PRES   REMARKS
TRI CITIES     CLOUDY    54  51  90 SW7       30.14R
ELIZABETHTON   CLOUDY    54  50  87 CALM      30.13S
$$

TNZ012-013-036-069-073-074-260200-
CENTRAL EAST TENNESSEE

CITY           SKY/WX    TMP DP  RH WIND       PRES   REMARKS
KNOXVILLE      CLOUDY    55  51  86 SW8       30.14R
OAK RIDGE      FAIR      56  50  80 S5        30.15R
DOWNTOWN KNOXV   N/A     57  52  82 W5        30.15S
GATLINBURG     CLOUDY    57  50  77 W3G12     30.16R
JACKSBORO      MOCLDY    54  48  82 CALM      30.17S
$$

TNZ083-085-099-260200-
SOUTHEAST TENNESSEE

CITY           SKY/WX    TMP DP  RH WIND       PRES   REMARKS
CHATTANOOGA    MOCLDY    57  50  77 SW6       30.15R
$$

SKY/WX REPORTED AS FAIR MEANS FEW OR NO CLOUDS BELOW
12 THOUSAND FEET.





USA.gov is the U.S. government's official web portal to all federal, state and local government web resources and services.